[[{"header":{"parameterUnit":"m.s-1","parameterCategory":1,"la1":30.2991,"la2":30.254,"lo1":-89.0895,"lo2":-89.0444,"dy":0.0017,"dx":0.0017,"nx":28,"ny":28,"refTime":"2024-08-20T21:00:00:Z","depth":0,"parameterNumber":2,"parameterNumberName":"U-component_of_WINDS"},"data":[0,0,0,0,0,0,0,0,0,0,0,0,0,0,0,0,0,0,0,0,0,0,0,0,0,0,0,0,0,0,0,0,0,0,0,0,0,0,0,0,0,0,0,0,0,0,0,0,0,0,0,0,0,0,0,0,0,0,0.5664,0.5664,0,0.5697,0.5697,0.5698,0.5692,0.5691,0.5691,0.569,0.5725,0.5727,0.5728,0,0,0,0,0,0,0,0,0,0,0,0,0,0.5597,0.5598,0.5664,0.5664,0.5665,0.5697,0.5697,0.5698,0.5692,0.5691,0.569,0.569,0.5725,0.5727,0.5728,0,0,0,0,0,0,0,0,0,0,0,0,0,0.5627,0.5598,0.5664,0.5665,0.5666,0.5697,0.5697,0.5698,0.5692,0.5691,0.569,0.5689,0.5724,0.5727,0.5729,0.576,0,0,0.5736,0.5737,0,0,0,0,0,0,0,0,0.5626,0.563,0.5665,0.5665,0.5666,0.5689,0.5687,0.5719,0.5692,0.5682,0.569,0.5689,0.5714,0.5717,0.5725,0.5762,0.5763,0.5736,0.5737,0.5738,0.5739,0,0,0,0,0,0,0,0.5624,0.5628,0.5677,0.5665,0.5666,0.5665,0.5668,0.5693,0.5703,0.5683,0.5683,0.5687,0.5714,0.5723,0.5726,0.5764,0.5736,0.5738,0.5739,0.574,0.5828,0.5829,0,0,0,0,0,0,0.5621,0.5627,0.5676,0.5678,0.5643,0.5667,0.5671,0.5683,0.5702,0.5705,0.5687,0.5686,0.572,0.5724,0.5727,0.5766,0.5738,0.574,0.5741,0.5827,0.5828,0.5829,0,0,0,0,0,0,0.5619,0.5625,0.5675,0.5652,0.5658,0.5669,0.5683,0.5684,0.5693,0.5706,0.5708,0.5694,0.5719,0.5724,0.5752,0.5767,0.5741,0.5743,0.5826,0.5828,0.5829,0.5842,0,0,0,0,0,0,0.5617,0.5625,0.5636,0.5653,0.566,0.5698,0.5683,0.5685,0.5696,0.5695,0.5713,0.5715,0.5719,0.5749,0.5754,0.5769,0.5745,0.5825,0.5827,0.5828,0.5841,0.5844,0.5847,0,0,0,0,0,0.5615,0.5639,0.5637,0.5643,0.5675,0.5699,0.5703,0.5707,0.5698,0.571,0.5718,0.5714,0.5764,0.5752,0.5758,0.5774,0.5824,0.5826,0.5828,0.5839,0.5843,0.5847,0,0,0,0,0,0,0.5625,0.5641,0.5639,0.5669,0.5683,0.5698,0.5713,0.5711,0.5728,0.5726,0.5731,0.5735,0.5763,0.5771,0.5757,0.5805,0.5793,0.5796,0.5799,0.5803,0.5806,0.5804,0.5747,0,0,0,0,0,0.5631,0.5649,0.5662,0.5687,0.5694,0.5703,0.5714,0.5715,0.573,0.5735,0.5746,0.576,0.5779,0.5792,0.581,0.5842,0.5846,0.5856,0.5859,0.5862,0.5865,0.5882,0.5887,0.5837,0.5837,0.5837,0,0,0.5643,0.5654,0.5665,0.569,0.57,0.5719,0.5708,0.5728,0.5742,0.5739,0.5765,0.5774,0.579,0.582,0.5834,0.5828,0.5879,0.5865,0.5866,0.5868,0.5885,0.589,0.5894,0.5838,0.5838,0.5838,0,0,0.5674,0.5684,0.5706,0.5717,0.5733,0.5739,0.5744,0.576,0.5765,0.5791,0.5789,0.5806,0.5839,0.5851,0.5861,0.5897,0.5894,0.5903,0.592,0.5937,0.5941,0.5944,0.5957,0.5962,0.5906,0.5906,0.5906,0,0.5687,0.5715,0.5718,0.5739,0.575,0.5747,0.5769,0.578,0.5801,0.5809,0.5802,0.5843,0.5854,0.5887,0.5895,0.5904,0.591,0.5901,0.594,0.5943,0.5947,0.5959,0.5964,0.5907,0.5907,0.5907,0.5906,0,0.573,0.575,0.5766,0.5786,0.5799,0.582,0.5827,0.584,0.584,0.5847,0.5874,0.5887,0.5908,0.5916,0.5917,0.5949,0.5944,0.5939,0.5926,0.5952,0.5964,0.5969,0.5908,0.5908,0.5907,0.5907,0,0,0.5769,0.579,0.5796,0.5805,0.5823,0.5838,0.586,0.5879,0.589,0.5905,0.5924,0.5951,0.5946,0.5958,0.596,0.5975,0.6003,0.5967,0.5968,0.5973,0.6039,0.6043,0.6048,0.6001,0.6002,0.6003,0.6037,0,0.5801,0.5839,0.5842,0.5876,0.5895,0.5892,0.5911,0.5924,0.5931,0.5947,0.5955,0.5974,0.5966,0.5973,0.5987,0.5996,0.6016,0.5994,0.6019,0.6019,0.6014,0.6054,0.6059,0.6091,0.6042,0.6043,0.6043,0,0.5845,0.586,0.5896,0.5911,0.5919,0.5936,0.5954,0.597,0.5985,0.5989,0.6002,0.6002,0.6025,0.6012,0.6043,0.6028,0.6039,0.6044,0.6046,0.6048,0.6033,0.6058,0.6101,0.6106,0.6051,0.605,0.6049,0,0.5869,0.5899,0.5924,0.5932,0.5951,0.5962,0.5971,0.5985,0.5996,0.6013,0.602,0.6039,0.605,0.6065,0.607,0.606,0.6102,0.6089,0.6106,0.6106,0.6115,0.6114,0.616,0.6122,0.6122,0.6121,0.6121,0,0.5905,0.5927,0.5935,0.5951,0.5975,0.5979,0.6004,0.6012,0.6024,0.6041,0.6041,0.6057,0.6063,0.6081,0.6086,0.6111,0.6116,0.612,0.6121,0.612,0.612,0.6127,0.6125,0.6123,0.6122,0.6122,0.6122,0,0.5936,0.5943,0.597,0.5985,0.5989,0.6007,0.602,0.6035,0.6041,0.6063,0.6069,0.6079,0.6099,0.6106,0.6132,0.6135,0.6165,0.6164,0.6159,0.6159,0.6176,0.6174,0.6229,0.6236,0.6192,0.6193,0.6193,0,0.5959,0.5976,0.5992,0.6003,0.6012,0.603,0.6042,0.6047,0.6059,0.6078,0.6091,0.6111,0.6127,0.6161,0.6171,0.619,0.619,0.6207,0.6193,0.6191,0.619,0.6189,0.619,0.621,0.621,0.6211,0.6211,0,0.5998,0.6001,0.6017,0.6035,0.6049,0.6064,0.6078,0.6087,0.6094,0.6108,0.6129,0.6142,0.6167,0.6188,0.6207,0.6216,0.6215,0.6216,0.6221,0.622,0.6216,0.6218,0.6167,0.6214,0.6214,0.6214,0.6214,0.6214,0.6026,0.604,0.6054,0.6073,0.6084,0.6097,0.6112,0.612,0.6137,0.6158,0.616,0.6183,0.6198,0.6224,0.6234,0.6252,0.6247,0.6254,0.6256,0.6258,0.6259,0.6214,0.6256,0.6256,0.6256,0.6255,0.6255,0,0.6065,0.6074,0.6091,0.611,0.6125,0.6122,0.6138,0.615,0.617,0.6184,0.62,0.6224,0.6244,0.6255,0.6275,0.6287,0.6287,0.6292,0.6292,0.6294,0.6262,0.6256,0.6292,0.6292,0.6292,0.6292,0.6292,0.6292,0.6087,0.6112,0.6116,0.6146,0.6155,0.6176,0.6185,0.6198,0.6209,0.6235,0.6251,0.6259,0.6272,0.6293,0.6311,0.6314,0.6321,0.6327,0.6329,0.63,0.6296,0.6292,0.6286,0.6329,0.6329,0.6359,0.636,0.636]},{"header":{"parameterUnit":"m.s-1","parameterCategory":1,"la1":30.2991,"la2":30.254,"lo1":-89.0895,"lo2":-89.0444,"dy":0.0017,"dx":0.0017,"nx":28,"ny":28,"refTime":"2024-08-20T21:00:00:Z","depth":0,"parameterNumber":3,"parameterNumberName":"V-component_of_WINDS"},"data":[0,0,0,0,0,0,0,0,0,0,0,0,0,0,0,0,0,0,0,0,0,0,0,0,0,0,0,0,0,0,0,0,0,0,0,0,0,0,0,0,0,0,0,0,0,0,0,0,0,0,0,0,0,0,0,0,0,0,-2.9201,-2.9202,0,-2.9269,-2.927,-2.927,-2.9312,-2.9312,-2.9313,-2.9313,-2.9377,-2.9378,-2.938,0,0,0,0,0,0,0,0,0,0,0,0,0,-2.9104,-2.9105,-2.9201,-2.9202,-2.9203,-2.9269,-2.927,-2.9271,-2.9312,-2.9312,-2.9313,-2.9313,-2.9376,-2.9378,-2.938,0,0,0,0,0,0,0,0,0,0,0,0,0,-2.9156,-2.9106,-2.9201,-2.9232,-2.9235,-2.9269,-2.927,-2.9271,-2.9312,-2.9312,-2.9313,-2.9313,-2.9376,-2.9378,-2.938,-2.9387,0,0,-2.9387,-2.9388,0,0,0,0,0,0,0,0,-2.9153,-2.9159,-2.9226,-2.9229,-2.9233,-2.9283,-2.9259,-2.931,-2.9312,-2.9283,-2.9313,-2.9313,-2.9345,-2.935,-2.9361,-2.939,-2.9393,-2.9387,-2.9389,-2.939,-2.939,0,0,0,0,0,0,0,-2.9149,-2.9157,-2.9228,-2.9227,-2.9231,-2.9241,-2.9248,-2.9269,-2.9311,-2.9285,-2.9288,-2.9296,-2.9347,-2.9359,-2.9363,-2.9394,-2.9387,-2.9389,-2.9391,-2.9391,-2.9432,-2.9432,0,0,0,0,0,0,-2.9141,-2.9153,-2.9226,-2.923,-2.9193,-2.9242,-2.9251,-2.9266,-2.9311,-2.9318,-2.9296,-2.9298,-2.9355,-2.9361,-2.9366,-2.9377,-2.939,-2.9392,-2.9393,-2.9433,-2.9432,-2.9432,0,0,0,0,0,0,-2.9139,-2.9147,-2.9223,-2.9193,-2.9203,-2.9243,-2.926,-2.9267,-2.928,-2.9319,-2.9326,-2.9301,-2.9356,-2.9363,-2.9382,-2.938,-2.9393,-2.9395,-2.9433,-2.9432,-2.9432,-2.94,0,0,0,0,0,0,-2.9136,-2.9146,-2.915,-2.9192,-2.9204,-2.9239,-2.926,-2.9268,-2.9284,-2.9288,-2.9326,-2.9332,-2.9357,-2.9378,-2.9384,-2.9383,-2.9396,-2.9433,-2.9433,-2.9432,-2.9401,-2.9399,-2.9396,0,0,0,0,0,-2.9132,-2.9137,-2.915,-2.9158,-2.921,-2.9239,-2.9245,-2.9275,-2.9284,-2.9288,-2.9313,-2.9331,-2.938,-2.938,-2.9387,-2.9387,-2.9433,-2.9433,-2.9432,-2.9403,-2.9399,-2.9396,0,0,0,0,0,0,-2.9091,-2.9143,-2.9158,-2.9177,-2.9203,-2.9246,-2.9251,-2.927,-2.9293,-2.9295,-2.933,-2.9338,-2.9354,-2.9372,-2.9372,-2.9396,-2.9409,-2.9409,-2.9384,-2.9381,-2.9378,-2.9373,-2.9398,0,0,0,0,0,-2.9084,-2.9105,-2.9148,-2.916,-2.9173,-2.921,-2.9223,-2.9244,-2.9273,-2.9283,-2.931,-2.9335,-2.9357,-2.937,-2.9391,-2.9405,-2.9413,-2.9408,-2.9405,-2.9403,-2.9403,-2.9412,-2.941,-2.943,-2.943,-2.943,0,0,-2.907,-2.9101,-2.9111,-2.9153,-2.9176,-2.9195,-2.9219,-2.9238,-2.9253,-2.9286,-2.9307,-2.9327,-2.9358,-2.9374,-2.9383,-2.939,-2.94,-2.9402,-2.94,-2.9401,-2.9411,-2.9409,-2.9408,-2.943,-2.943,-2.943,0,0,-2.9054,-2.9079,-2.9093,-2.9116,-2.9152,-2.9177,-2.918,-2.922,-2.9236,-2.9258,-2.9284,-2.9301,-2.9336,-2.9357,-2.9373,-2.9367,-2.9384,-2.9373,-2.9359,-2.9367,-2.9366,-2.9365,-2.9363,-2.9362,-2.9373,-2.9373,-2.9373,0,-2.9031,-2.9063,-2.9097,-2.9115,-2.9133,-2.9166,-2.918,-2.92,-2.924,-2.9251,-2.9259,-2.9306,-2.9329,-2.9351,-2.935,-2.9361,-2.9366,-2.9368,-2.9364,-2.9363,-2.9362,-2.9361,-2.936,-2.9371,-2.9371,-2.9371,-2.9372,0,-2.9033,-2.9055,-2.9061,-2.9102,-2.912,-2.9135,-2.9171,-2.9185,-2.9205,-2.9228,-2.925,-2.928,-2.9308,-2.9315,-2.9333,-2.9341,-2.9344,-2.9357,-2.937,-2.9358,-2.9357,-2.9357,-2.9369,-2.9369,-2.937,-2.937,0,0,-2.8991,-2.9052,-2.9054,-2.9073,-2.9116,-2.9133,-2.915,-2.918,-2.9192,-2.9218,-2.9233,-2.9264,-2.9277,-2.9295,-2.9316,-2.9323,-2.9318,-2.9336,-2.9337,-2.9332,-2.9328,-2.9318,-2.9317,-2.933,-2.933,-2.933,-2.9326,0,-2.8981,-2.9016,-2.9048,-2.907,-2.9091,-2.9124,-2.9139,-2.9166,-2.9189,-2.9209,-2.9234,-2.9255,-2.9271,-2.9282,-2.9291,-2.9316,-2.9317,-2.9317,-2.9343,-2.9344,-2.9335,-2.9316,-2.9305,-2.9299,-2.9326,-2.9326,-2.9326,0,-2.8974,-2.9002,-2.9027,-2.907,-2.9079,-2.9093,-2.9124,-2.9143,-2.9174,-2.919,-2.9211,-2.9234,-2.9253,-2.9265,-2.9292,-2.9291,-2.9304,-2.9318,-2.9318,-2.9322,-2.9334,-2.9319,-2.9298,-2.9297,-2.9325,-2.9325,-2.9325,0,-2.8941,-2.8985,-2.9006,-2.9021,-2.9071,-2.908,-2.9101,-2.9133,-2.915,-2.9176,-2.9188,-2.9215,-2.923,-2.9251,-2.928,-2.9286,-2.9304,-2.9318,-2.9317,-2.9317,-2.9319,-2.9318,-2.93,-2.9327,-2.9327,-2.9327,-2.9327,0,-2.8926,-2.894,-2.8992,-2.9005,-2.9022,-2.9059,-2.9074,-2.9097,-2.9126,-2.9144,-2.9173,-2.9189,-2.9227,-2.9247,-2.927,-2.9289,-2.9296,-2.9309,-2.9315,-2.9306,-2.9304,-2.9314,-2.9315,-2.9327,-2.9327,-2.9327,-2.9327,0,-2.8892,-2.8927,-2.8953,-2.8999,-2.9011,-2.9021,-2.906,-2.9074,-2.9099,-2.9121,-2.9128,-2.9167,-2.9193,-2.9225,-2.9259,-2.9275,-2.9291,-2.93,-2.9281,-2.9284,-2.9282,-2.9282,-2.9269,-2.927,-2.9297,-2.9296,-2.9296,0,-2.888,-2.8892,-2.8941,-2.8956,-2.8976,-2.9,-2.9018,-2.9054,-2.9071,-2.911,-2.9118,-2.9146,-2.9171,-2.9209,-2.924,-2.9267,-2.9277,-2.9271,-2.9281,-2.9272,-2.9277,-2.9276,-2.9277,-2.9268,-2.9267,-2.9267,-2.9266,0,-2.8855,-2.8873,-2.8899,-2.8931,-2.8952,-2.8979,-2.9007,-2.9017,-2.9059,-2.9077,-2.9104,-2.9123,-2.916,-2.9187,-2.9219,-2.9239,-2.9259,-2.9263,-2.9265,-2.9256,-2.9244,-2.9251,-2.9274,-2.9263,-2.9263,-2.9264,-2.9264,-2.9264,-2.8832,-2.8845,-2.8882,-2.891,-2.8935,-2.8961,-2.8977,-2.9005,-2.9029,-2.9064,-2.9083,-2.911,-2.9143,-2.9187,-2.9207,-2.9228,-2.9235,-2.9237,-2.9237,-2.9237,-2.9235,-2.9242,-2.9233,-2.9233,-2.9234,-2.9234,-2.9234,0,-2.8809,-2.8835,-2.8861,-2.89,-2.8922,-2.8943,-2.8975,-2.8991,-2.9015,-2.9045,-2.9069,-2.9101,-2.9128,-2.9162,-2.9191,-2.9201,-2.9211,-2.9208,-2.9207,-2.9211,-2.9226,-2.9222,-2.9199,-2.9199,-2.9199,-2.9199,-2.9199,-2.9199,-2.88,-2.8823,-2.8845,-2.8882,-2.8907,-2.8935,-2.8952,-2.8976,-2.9,-2.9035,-2.9059,-2.9081,-2.9113,-2.9145,-2.9171,-2.918,-2.9189,-2.9182,-2.9194,-2.9207,-2.921,-2.9213,-2.921,-2.9184,-2.9184,-2.9178,-2.9178,-2.9178]}]]